COSMOS 1275 DEB, 14228

Orbit data source: Space-Track

COSMOS 1275 DEB, 14228 is space debris in LEO originally from a launch on Thu, 04 Jun 1981 UTC launched from the Plesetsk Missile And Space Complex (PKMTR). Debris objects in space refer to the collection of defunct objects orbiting the Earth. Examples of debris include non-operational satellites, rocket bodies, and fragments generated from explosions, collisions, or faulty payload assembly.

Loading next visibility...
Identifier
14228, 1981-053HN
Orbit
LEO
Country
Flag of CISCIS
Related business
Manufacturer
Unknown
Mission
Spacecraft
Bus & Motor
Unknown
Mass
Unknown
Launch date (UTC)
1981-06-04 (44 years ago)
Launch vehicle
Unknown
Launch site
Plesetsk Missile And Space Complex (PKMTR)
Object type
Payload
Rocket body
Debris
Shape & HBR
Unknown shape, 0.1 m
Radar Cross Section
Small (<0.1 m²)

Expand to show TLE details & history
Last TLE update: 16 hours ago

TLE from 16 hours ago
0 COSMOS 1275 DEB
1 14228U 81053HN  25286.37132971  .00002715  00000-0  23393-2 0  9997
2 14228  82.9643 261.9454 0088352 282.4824 231.8207 13.84487373134973
Epoch: 2025-10-13T08:54Z
TLE epoch observation values (Epoch: 2025-10-13T08:54:42.886Z)
Latitude
26.30617°
Longitude
-77.38818°
Altitude
991.586 km
Speed
7.338 km/s
True Right ascension
05h 13m 51s
True Declination
26° 10' 27"
Sunlit
Object was in full shadow at epoch
Visualization orbit readout
Latitude
Unknown
Longitude
Unknown
Altitude
Unknown
Speed
Unknown
Apparent Right ascension
Unknown
Apparent Declination
Unknown
Sunlit
N/A
Visualization observer readout
Local Sidereal Time
19:17:27
Azimuth
Unknown
Elevation
Unknown
Doppler factor
Unknown
Orbital elements
Apogee altitude
1,009.851 km
Perigee altitude
880.445 km
Semi-major axis
7,323.285 km
Eccentricity
0.00884
Inclination
82.9643°
RAAN
261.9454°
Arg. of periapsis
282.4824°
True anomaly
231.03026°
Mean anomaly
231.8207°
Eccentric anomaly
231.42494°
Mean motion
3.46325 °/min
Orbital period
103.95 mins
BSTAR
0.0023393
Loading maneuver chart data...
Computing Atmospheric mass density...
Loading historical data...
Loading historical data...
Loading historical data...
Loading historical data...
Loading historical data...
Loading historical data...
Loading historical data...

Documentation

Showing up to 5 results
|